Ely, MN

5:15 AM CDT on May 20, 2018 (GMT -0500)
Ely Municipal

Weather History for KELO - January, 2014

Change the Weather History Date:

Tuesday, January 28, 2014

  Actual Average Record
Temperature  
Mean Temperature -15 °F -  
Max Temperature -5 °F 20 °F 37 °F (2006)
Min Temperature -25 °F 0 °F -25 °F (2014)
Degree Days  
Heating Degree Days 80    
Moisture  
Dew Point -21 °F    
Average Humidity 72    
Maximum Humidity 83    
Minimum Humidity 59    
Precipitation  
Precipitation 0.00 in - - ()
Sea Level Pressure  
Sea Level Pressure 29.93 in    
Wind  
Wind Speed 9 mph (West)    
Max Wind Speed 18 mph    
Max Gust Speed 30 mph    
Visibility 10 miles    
Events      
Averages and records for this station are not official NWS values.
T = Trace of Precipitation, MM = Missing Value Source: NWS Daily Summary

Daily Weather History Graph

Daily Weather History Graph

Search for Another Location

Airport or City:

Astronomy

Jan. 28, 2014 Rise Set
Actual Time 7:39 AM CST 5:01 PM CST
Civil Twilight 7:05 AM CST 5:35 PM CST
Nautical Twilight 6:28 AM CST 6:12 PM CST
Astronomical Twilight 5:52 AM CST 6:49 PM CST
Moon 5:24 AM CST (1/28) 2:49 PM CST (1/28)
Length of Visible Light 10h 29m
Length of Day
9h 22m
Waning Crescent, 7% of the Moon is Illuminated
Jan 28
Waning Crescent
Jan 30
New
Feb 6
First Quarter
Feb 14
Full
Feb 22
Last Quarter

Hourly Weather History & Observations

Time (CST) Temp. Windchill Dew Point Humidity Pressure Visibility Wind Dir Wind Speed Gust Speed Precip Events Conditions
12:13 AM -23.8 °F -39.8 °F -27.4 °F 83% 30.11 in 10.0 mi West 5.8 mph - N/A   Clear
12:33 AM -23.8 °F -39.8 °F -27.4 °F 83% 30.11 in 10.0 mi West 5.8 mph - N/A   Clear
12:53 AM -23.8 °F -39.8 °F -29.2 °F 76% 30.11 in 10.0 mi WSW 5.8 mph - N/A   Clear
1:12 AM -23.8 °F -39.8 °F -29.2 °F 76% 30.10 in 10.0 mi WSW 5.8 mph - N/A   Clear
1:33 AM -23.8 °F -39.8 °F -29.2 °F 76% 30.10 in 10.0 mi WSW 5.8 mph - N/A   Clear
1:53 AM -23.8 °F -39.8 °F -29.2 °F 76% 30.10 in 10.0 mi WSW 5.8 mph - N/A   Clear
2:13 AM -23.8 °F -41.6 °F -29.2 °F 76% 30.09 in 10.0 mi WSW 6.9 mph - N/A   Clear
2:32 AM -23.8 °F -39.8 °F -29.2 °F 76% 30.08 in 10.0 mi West 5.8 mph - N/A   Clear
2:53 AM -25.6 °F -37.1 °F -31.0 °F 76% 30.08 in 10.0 mi WSW 3.5 mph - N/A   Clear
3:13 AM -25.6 °F -41.9 °F -31.0 °F 76% 30.07 in 10.0 mi WSW 5.8 mph - N/A   Clear
3:32 AM -23.8 °F -39.8 °F -29.2 °F 76% 30.06 in 10.0 mi West 5.8 mph - N/A   Clear
3:53 AM -23.8 °F -41.6 °F -29.2 °F 76% 30.06 in 10.0 mi West 6.9 mph - N/A   Clear
4:13 AM -23.8 °F -41.6 °F -29.2 °F 76% 30.05 in 10.0 mi West 6.9 mph - N/A   Clear
4:31 AM -23.8 °F -41.6 °F -29.2 °F 76% 30.04 in 10.0 mi West 6.9 mph - N/A   Clear
4:52 AM -23.8 °F -43.2 °F -29.2 °F 76% 30.03 in 10.0 mi West 8.1 mph - N/A   Clear
5:13 AM -23.8 °F -41.6 °F -29.2 °F 76% 30.03 in 10.0 mi West 6.9 mph - N/A   Clear
5:33 AM -23.8 °F -37.7 °F -29.2 °F 76% 30.02 in 10.0 mi West 4.6 mph - N/A   Clear
5:53 AM -23.8 °F -39.8 °F -29.2 °F 76% 30.03 in 10.0 mi West 5.8 mph - N/A   Clear
6:13 AM -23.8 °F -43.2 °F -29.2 °F 76% 30.02 in 10.0 mi West 8.1 mph - N/A   Clear
6:33 AM -23.8 °F -44.5 °F -29.2 °F 76% 30.02 in 10.0 mi West 9.2 mph - N/A   Clear
6:53 AM -23.8 °F -41.6 °F -29.2 °F 76% 30.02 in 10.0 mi West 6.9 mph - N/A   Clear
7:13 AM -23.8 °F -39.8 °F -29.2 °F 76% 30.01 in 10.0 mi West 5.8 mph - N/A   Clear
7:33 AM -23.8 °F -41.6 °F -29.2 °F 76% 30.01 in 10.0 mi WSW 6.9 mph - N/A   Scattered Clouds
7:53 AM -23.8 °F -41.6 °F -29.2 °F 76% 30.01 in 10.0 mi WSW 6.9 mph - N/A   Mostly Cloudy
8:13 AM -23.8 °F -41.6 °F -27.4 °F 83% 30.01 in 10.0 mi West 6.9 mph - N/A   Scattered Clouds
8:33 AM -22.0 °F -37.7 °F -27.4 °F 76% 30.01 in 10.0 mi WSW 5.8 mph - N/A   Clear
8:53 AM -20.2 °F -37.3 °F -25.6 °F 76% 30.01 in 4.0 mi WSW 6.9 mph - N/A   Haze
9:13 AM -18.4 °F -41.2 °F -25.6 °F 70% 30.01 in 10.0 mi West 12.7 mph - N/A   Scattered Clouds
9:33 AM -18.4 °F -37.9 °F -23.8 °F 76% 30.01 in 10.0 mi West 9.2 mph 20.7 mph N/A   Scattered Clouds
9:53 AM -16.6 °F -36.8 °F -23.8 °F 70% 30.00 in 10.0 mi West 10.4 mph 17.3 mph N/A   Scattered Clouds
10:13 AM -16.6 °F -38.9 °F -23.8 °F 70% 29.99 in 10.0 mi West 12.7 mph 19.6 mph N/A   Clear
10:33 AM -16.6 °F -40.6 °F -22.0 °F 76% 29.98 in 10.0 mi West 15.0 mph 19.6 mph N/A   Clear
10:53 AM -14.8 °F -39.8 °F -22.0 °F 70% 29.97 in 10.0 mi West 17.3 mph 21.9 mph N/A   Clear
11:13 AM -14.8 °F -38.3 °F -23.8 °F 64% 29.96 in 10.0 mi West 15.0 mph 23.0 mph N/A   Clear
11:33 AM -13.0 °F -36.8 °F -20.2 °F 70% 29.96 in 10.0 mi West 16.1 mph 20.7 mph N/A   Clear
11:53 AM -11.2 °F -33.7 °F -20.2 °F 64% 29.94 in 10.0 mi West 15.0 mph 21.9 mph N/A   Clear
12:13 PM -11.2 °F -32.9 °F -20.2 °F 64% 29.93 in 10.0 mi West 13.8 mph 25.3 mph N/A   Clear
12:33 PM -11.2 °F -34.4 °F -20.2 °F 64% 29.92 in 10.0 mi West 16.1 mph 23.0 mph N/A   Clear
12:53 PM -9.4 °F -31.4 °F -18.4 °F 65% 29.91 in 10.0 mi West 15.0 mph 24.2 mph N/A   Clear
1:13 PM -7.6 °F -24.6 °F -18.4 °F 59% 29.90 in 10.0 mi West 9.2 mph 20.7 mph N/A   Scattered Clouds
1:33 PM -9.4 °F -28.9 °F -18.4 °F 65% 29.89 in 10.0 mi West 11.5 mph 23.0 mph N/A   Overcast
1:53 PM -9.4 °F -29.8 °F -16.6 °F 71% 29.88 in 7.0 mi West 12.7 mph 25.3 mph N/A   Overcast
2:13 PM -7.6 °F -29.1 °F -16.6 °F 65% 29.87 in 10.0 mi West 15.0 mph 23.0 mph N/A   Overcast
2:33 PM -7.6 °F -31.1 °F -16.6 °F 65% 29.86 in 10.0 mi West 18.4 mph 29.9 mph N/A   Overcast
2:53 PM -5.8 °F -24.4 °F -14.8 °F 65% 29.86 in 10.0 mi WSW 11.5 mph 23.0 mph N/A   Overcast
3:13 PM -5.8 °F -28.8 °F -14.8 °F 65% 29.85 in 10.0 mi WSW 18.4 mph 25.3 mph N/A   Overcast
3:33 PM -5.8 °F -24.4 °F -14.8 °F 65% 29.85 in 10.0 mi WSW 11.5 mph 21.9 mph N/A   Overcast
3:52 PM -5.8 °F -24.4 °F -14.8 °F 65% 29.85 in 10.0 mi WSW 11.5 mph 18.4 mph N/A   Overcast
4:13 PM -5.8 °F -26.0 °F -14.8 °F 65% 29.85 in 10.0 mi WSW 13.8 mph 19.6 mph N/A   Overcast
4:33 PM -5.8 °F -25.2 °F -14.8 °F 65% 29.84 in 10.0 mi WSW 12.7 mph 18.4 mph N/A   Overcast
4:52 PM -5.8 °F -25.2 °F -14.8 °F 65% 29.83 in 10.0 mi WSW 12.7 mph 18.4 mph N/A   Overcast
5:13 PM -5.8 °F -25.2 °F -14.8 °F 65% 29.81 in 10.0 mi WSW 12.7 mph 20.7 mph N/A   Overcast
5:33 PM -5.8 °F -24.4 °F -14.8 °F 65% 29.82 in 10.0 mi WSW 11.5 mph 21.9 mph N/A   Overcast
5:53 PM -5.8 °F -26.0 °F -14.8 °F 65% 29.82 in 10.0 mi WSW 13.8 mph 21.9 mph N/A   Overcast
6:13 PM -5.8 °F -24.4 °F -14.8 °F 65% 29.82 in 10.0 mi WSW 11.5 mph 19.6 mph N/A   Overcast
6:33 PM -5.8 °F -27.5 °F -14.8 °F 65% 29.81 in 10.0 mi West 16.1 mph 24.2 mph N/A   Mostly Cloudy
6:53 PM -5.8 °F -26.8 °F -13.0 °F 71% 29.80 in 10.0 mi WSW 15.0 mph 20.7 mph N/A   Mostly Cloudy
7:13 PM -5.8 °F -23.4 °F -13.0 °F 71% 29.79 in 10.0 mi WSW 10.4 mph 20.7 mph N/A   Overcast
7:33 PM -5.8 °F -26.0 °F -13.0 °F 71% 29.79 in 10.0 mi West 13.8 mph 19.6 mph N/A   Overcast
7:53 PM -5.8 °F -27.5 °F -13.0 °F 71% 29.79 in 10.0 mi West 16.1 mph 24.2 mph N/A   Mostly Cloudy
8:13 PM -5.8 °F -27.5 °F -13.0 °F 71% 29.78 in 10.0 mi West 16.1 mph 24.2 mph N/A   Clear
8:33 PM -5.8 °F -25.2 °F -13.0 °F 71% 29.78 in 10.0 mi West 12.7 mph 24.2 mph N/A   Clear
8:53 PM -5.8 °F -25.2 °F -13.0 °F 71% 29.79 in 10.0 mi West 12.7 mph 19.6 mph N/A   Clear
9:13 PM -7.6 °F -24.6 °F -13.0 °F 77% 29.79 in 10.0 mi West 9.2 mph 18.4 mph N/A   Clear
9:32 PM -7.6 °F -25.7 °F -14.8 °F 71% 29.79 in 10.0 mi West 10.4 mph 18.4 mph N/A   Clear
9:53 PM -5.8 °F -28.2 °F -13.0 °F 71% 29.78 in 10.0 mi West 17.3 mph 23.0 mph N/A   Clear
10:13 PM -5.8 °F -26.0 °F -13.0 °F 71% 29.79 in 10.0 mi West 13.8 mph 21.9 mph N/A   Clear
10:33 PM -7.6 °F -26.6 °F -14.8 °F 71% 29.78 in 10.0 mi West 11.5 mph 21.9 mph N/A   Clear
10:53 PM -5.8 °F -23.4 °F -13.0 °F 71% 29.78 in 10.0 mi West 10.4 mph 19.6 mph N/A   Clear
11:13 PM -5.8 °F -23.4 °F -13.0 °F 71% 29.78 in 10.0 mi West 10.4 mph 18.4 mph N/A   Clear
11:33 PM -7.6 °F -25.7 °F -13.0 °F 77% 29.78 in 10.0 mi WSW 10.4 mph 16.1 mph N/A   Clear
11:53 PM -5.8 °F -23.4 °F -13.0 °F 71% 29.78 in 10.0 mi WSW 10.4 mph 16.1 mph N/A   Clear